Location: *
(51.0333°S, 179.0833°W)
Time: 12:12:58
(UTC+00:00)

Daily predictions for brighter satellites

Satellite Brightness Start Highest point End
(mag) Time Altitude Azimuth Time Altitude Azimuth Time Altitude Azimuth
Cosmos 2242 Rocket 4.0 12:00:18 10° SSW 12:04:48 54° W 12:06:37 33° NNW
Cosmos 1400 Rocket 3.3 12:02:18 10° S 12:06:22 54° ESE 12:08:17 28° NE
GP-B 3.1 12:03:20 10° S 12:07:53 85° W 12:09:46 35° N
Cosmos 1408 4.1 12:11:57 10° SSE 12:14:49 26° ESE 12:16:33 17° ENE
Iridium 2 4.0 12:11:54 10° SSW 12:15:09 42° W 12:15:50 37° WNW
Meteor 2-5 Rocket 3.8 12:10:31 10° S 12:16:24 80° ESE 12:19:55 25° NNE
SAR-Lupe-4 3.8 12:16:32 33° NE 12:18:01 65° ESE 12:21:39 10° S
Cosmos 2181 Rocket 4.3 12:21:56 24° NNW 12:25:57 62° WSW 12:32:22 10° S
SL-24 DEB 4.2 12:23:04 10° S 12:27:52 87° E 12:30:08 31° N
Cosmos 1867 3.9 12:25:06 10° SW 12:30:31 67° SE 12:35:54 10° NE
Cosmos 1697 Rocket 2.9 12:26:22 10° SW 12:31:56 53° WNW 12:34:49 27° N
Terra 4.5 12:30:57 10° SSW 12:32:31 12° SW 12:34:06 10° WSW
SAR-Lupe-1 4.0 12:31:33 36° NNE 12:32:58 90° WSW 12:36:41 10° SSW
SL-08 R/B 4.5 12:28:06 10° SSW 12:34:22 81° W 12:38:12 25° N
Cosmos 1378 Rocket 3.5 12:31:33 10° SSW 12:35:59 83° W 12:38:02 31° N
Genesis I 4.2 12:34:24 10° SSW 12:38:01 45° SE 12:41:37 10° ENE
Cosmos 1908 Rocket 4.5 12:35:50 22° NNE 12:38:14 42° E 12:42:31 10° SSE
NOSS 3-1 (A) 4.0 12:31:42 10° SW 12:38:43 62° SE 12:44:20 10° ENE
Cosmos 2208 Rocket 4.1 12:33:30 10° SSW 12:38:49 63° WNW 12:41:48 26° N
NOSS 3-1 (C) 3.3 12:33:28 10° SW 12:40:21 85° NW 12:45:50 10° NE
Cosmos 1703 3.3 12:36:45 10° S 12:40:40 76° E 12:42:28 30° NNE
Cosmos 1733 Rocket 3.1 12:39:19 31° NNW 12:41:20 69° WSW 12:45:46 10° S
H-2A R/B 4.4 12:40:24 28° NW 12:41:43 34° W 12:45:36 10° SSW
Cosmos 2221 Rocket 3.6 12:39:11 10° SSW 12:43:49 76° W 12:46:04 29° N
Cosmos 1633 3.8 12:41:05 10° S 12:43:51 29° ESE 12:45:38 17° NE
ADEOS II 2.5 12:39:42 15° NNE 12:44:02 63° ESE 12:49:19 10° S
Cosmos 2098 Rocket 3.4 12:43:49 25° NE 12:44:46 31° E 12:47:35 10° SSE
Cosmos 1908 3.4 12:43:57 34° NW 12:45:22 61° WSW 12:49:10 10° S
USA 215 3.9 12:42:47 24° N 12:45:44 34° NW 12:51:40 10° WSW
Meteor 1-22 Rocket 4.1 12:43:17 27° NNW 12:46:15 79° WSW 12:51:40 10° S
Meteor 1-15 Rocket 4.4 12:44:42 26° NNW 12:48:08 71° WSW 12:53:54 10° S
Cosmos 1470 4.0 12:46:51 22° WNW 12:48:35 33° WSW 12:52:11 10° S
SL-16 R/B 3.6 12:46:24 10° SSW 12:51:49 40° SE 12:57:10 10° ENE
Cosmos 1900 4.3 12:48:19 10° SW 12:53:10 62° WNW 12:56:20 21° NNE
Resurs 1-4 Rocket 2.1 12:51:34 24° N 12:54:51 72° WNW 13:00:13 10° SSW
COSMOS 2406 3.6 12:53:14 24° N 12:56:36 53° ENE 13:02:15 10° SE
Lacrosse 5 rocket 1.5 12:53:04 10° WSW 12:56:42 63° SSE 13:00:23 10° ENE
ATLAS CENTAUR R/B 2.3 12:52:34 10° SW 12:57:00 53° SE 13:01:21 10° ENE
IDEFIX/ARIANE 42P 2.6 12:56:11 24° N 12:59:25 69° WNW 13:04:46 10° SSW
USA 81 4.3 12:56:53 25° NNW 12:59:54 61° W 13:05:13 10° S
Cosmos 1980 Rocket 2.3 12:55:07 10° SW 13:00:46 63° WNW 13:04:48 19° N
Cosmos 2369 3.7 12:55:08 10° SSW 13:00:50 72° WNW 13:05:23 16° NNE
Cosmos 1892 3.9 12:58:13 10° S 13:01:40 36° ESE 13:04:43 12° NE
CZ-2D R/B 2.3 13:01:05 23° N 13:04:34 64° WNW 13:10:08 10° SSW
ALOS 3.5 13:02:37 10° NE 13:06:59 40° ESE 13:11:24 10° S
Cosmos 1356 Rocket 4.2 13:07:42 10° SSW 13:11:40 39° W 13:13:29 26° NW
Cosmos 773 Rocket 4.0 13:06:26 10° SSW 13:11:49 80° WNW 13:16:20 15° NNE
BREEZE-M DEB (TANK) 2.6 13:06:26 10° W 13:12:22 71° N 13:14:57 10° E
ARGOS Delta rocket 4.4 13:09:58 10° S 13:14:25 44° WSW 13:17:02 21° NW
Cosmos 1825 3.4 13:11:29 10° S 13:14:54 37° ESE 13:18:14 10° NE
Lacrosse 4 Rocket 4.1 13:15:50 10° SW 13:17:39 13° SSW 13:19:29 10° S
ALOS 2 3.6 13:13:52 10° S 13:18:01 38° WSW 13:20:42 19° NW
Cosmos 1833 Rocket 3.6 13:15:24 14° WNW 13:20:01 43° SW 13:25:27 10° SSE
Nadezhda 3 Rocket 4.5 13:16:59 20° NW 13:21:21 53° WSW 13:27:41 10° S
ATLAS 3B R/B 2.5 13:15:21 10° SW 13:21:39 66° NW 13:27:52 10° NNE
Cosmos 1340 2.6 13:21:18 29° NNW 13:23:00 68° WSW 13:26:38 10° S
Cosmos 1300 2.6 13:21:54 28° NNW 13:23:45 71° WSW 13:27:31 10° S
Cosmos 1025 Rocket 3.0 13:20:20 10° SSW 13:24:50 83° W 13:28:01 19° N
USA 308 1.7 13:25:27 45° NNE 13:25:36 46° NNE 13:28:10 10° ESE
FENGYUN 3A 3.7 13:20:36 12° NNE 13:25:41 87° ESE 13:31:11 10° SSW
Cosmos 1758 4.1 13:25:43 23° NW 13:27:50 41° WSW 13:31:42 10° S
Cosmos 1934 Rocket 4.3 13:22:49 10° SSW 13:29:06 57° W 13:33:42 18° NNW
Cosmos 1455 3.7 13:26:21 12° NNE 13:29:18 30° E 13:32:35 10° SSE
SJ 16-02 2.9 13:28:06 13° WNW 13:31:20 28° SW 13:35:10 10° S
Meteor 2-10 Rocket 3.9 13:27:53 21° NNW 13:31:52 72° WSW 13:37:47 10° S
Helios 1A Rocket 3.0 13:28:09 10° S 13:32:08 61° WSW 13:34:27 23° NW
Cosmos 1605 Rocket 3.9 13:26:39 10° SSW 13:32:51 81° W 13:38:18 14° N
Cosmos 2278 3.7 13:31:35 10° SSW 13:37:21 82° WNW 13:43:04 10° NNE
BREEZE M DEB (TANK) 1.6 13:37:59 31° WNW 13:38:48 59° N 13:41:25 10° E
AQUA 4.0 13:35:41 19° N 13:38:59 54° W 13:43:44 10° SSW
Cosmos 371 Rocket 4.3 13:36:53 13° N 13:40:47 39° ENE 13:45:23 10° SE
Cosmos 2082 Rocket 2.3 13:37:14 19° NW 13:41:27 76° WSW 13:47:16 10° SSE
Cosmos 2237 4.3 13:39:28 10° SSW 13:45:17 83° ESE 13:51:03 10° NNE
Cosmos 1408 3.8 13:45:47 10° SW 13:48:26 22° W 13:49:34 18° WNW
Cosmos 1782 Rocket 3.6 13:45:23 19° NNW 13:48:36 76° W 13:53:12 10° S
ATLAS 2AS CENTAUR R/B 3.1 13:46:06 10° WNW 13:52:38 59° SW 13:59:39 10° SE
Cosmos 44 Rocket 3.4 13:52:48 18° NNW 13:56:13 61° NE 14:00:49 10° SE
Cosmos 2360 Rocket 3.0 13:52:49 10° SSW 13:58:27 57° SE 14:04:03 10° NE
CZ-2C R/B 3.3 13:54:27 10° N 14:00:02 77° WNW 14:05:56 10° SSW
Cosmos 1953 2.5 13:57:21 18° NNW 14:00:07 59° WSW 14:04:07 10° S
USA 306 3.2 14:00:04 19° NNW 14:02:03 38° NE 14:05:31 10° ESE
In-Cosmos 22 Rocket 4.5 13:57:06 10° S 14:03:04 80° ESE 14:08:53 10° NNE
Cosmos 1538 Rocket 4.1 13:57:44 10° SSW 14:03:14 87° ESE 14:08:40 10° NNE
Cosmos 2219 Rocket 3.9 14:00:14 10° SSW 14:05:29 37° SE 14:10:42 10° ENE
ISS -2.1 14:03:50 16° N 14:05:34 23° NE 14:08:21 10° E
Cosmos 1975 Rocket 3.4 14:01:38 10° SSW 14:05:55 50° W 14:09:35 13° NNW
Cosmos 1315 Rocket 3.6 14:04:24 10° SSW 14:08:04 34° W 14:10:49 16° NNW
Meteor 1-21 Rocket 4.4 14:04:17 10° SSW 14:09:50 54° W 14:15:15 10° N
Cosmos 1328 4.3 14:08:21 10° SSW 14:12:05 42° W 14:15:12 14° NNW
MOZ.5/SAFIR/RUBIN 5/SL-8 4.3 14:08:42 10° SSE 14:13:25 59° E 14:18:03 10° N
Cosmos 1867 4.5 14:09:12 10° WSW 14:13:44 28° WNW 14:18:13 10° N
Genesis I 4.2 14:11:30 10° WSW 14:14:36 25° WNW 14:17:21 12° N
Cosmos 2322 Rocket 2.2 14:08:53 10° SSW 14:14:37 89° SE 14:20:16 10° NNE
Cosmos 1633 4.0 14:14:20 10° SW 14:16:25 17° W 14:17:41 14° WNW
USA 229 DEB 3.5 14:10:18 10° SW 14:17:11 83° NW 14:23:25 10° NE
USA 229 3.6 14:10:22 10° SW 14:17:15 84° NW 14:23:29 10° NE
Cosmos 1777 Rocket 4.3 14:13:10 14° NW 14:17:39 60° WSW 14:22:53 10° SSE
Cosmos 2333 Rocket 2.7 14:13:55 10° SSW 14:19:38 65° SE 14:25:17 10° NE
CZ-2C R/B 2.6 14:17:42 10° NNE 14:22:55 85° ESE 14:28:04 10° SSW
ADEOS II 3.4 14:20:36 13° NW 14:24:06 23° W 14:28:20 10° SW
Cosmos 1536 Rocket 3.8 14:20:12 10° S 14:24:47 77° ESE 14:29:19 10° NNE
Cosmos 2098 Rocket 4.5 14:23:13 10° W 14:24:49 14° WSW 14:26:29 10° SSW
Thor Agena Rocket 3.8 14:20:59 10° N 14:25:58 51° W 14:31:05 10° SSW
ATLAS 5 CENTAUR R/B 4.3 14:22:13 10° SW 14:28:08 33° SSE 14:33:05 10° E
SL-16 R/B 4.4 14:23:53 10° SE 14:29:07 27° E 14:34:17 10° NNE
NOSS 3-1 (A) 3.9 14:23:24 10° SW 14:29:11 35° WNW 14:34:01 10° N
ATLAS CENTAUR R/B 2.4 14:31:01 10° WSW 14:34:53 29° WNW 14:38:39 10° N
Lacrosse 5 rocket 1.9 14:31:52 10° WSW 14:35:03 28° NW 14:38:19 10° NNE
Resurs 1-4 Rocket 4.1 14:33:33 10° WNW 14:35:37 12° W 14:37:41 10° WSW
SL-16 R/B 2.5 14:30:35 10° SW 14:36:02 46° WNW 14:41:26 10° N
Cosmos 2151 Rocket 3.8 14:31:31 10° N 14:36:04 78° E 14:40:41 10° SSE
Cosmos 1892 4.2 14:33:41 10° SW 14:36:25 20° W 14:38:58 11° NW
Cosmos 1459 Rocket 4.1 14:31:55 10° SSW 14:38:23 76° W 14:44:46 10° N
BREEZE-M DEB (TANK) 2.7 14:38:05 10° WNW 14:39:46 20° NNW 14:41:51 10° NNE
COSMOS 2406 4.3 14:35:53 10° WNW 14:41:10 36° SW 14:46:31 10° SSE
DNEPR-1 R/B 3.5 14:38:45 10° NW 14:43:08 79° NE 14:47:16 10° SE
Cosmos 1980 Rocket 4.1 14:42:03 10° WSW 14:43:37 11° W 14:45:10 10° WNW
ALOS 3.2 14:40:12 10° NNW 14:44:20 30° W 14:48:32 10° SSW
CZ-2D R/B 4.2 14:44:06 10° W 14:45:41 11° W 14:47:17 10° WSW
PAYLOAD A 3.9 14:42:01 10° N 14:46:46 66° WNW 14:51:32 10° SSW
Cosmos 1825 3.7 14:46:44 10° SW 14:49:19 19° W 14:51:53 10° NW
USA 281 3.3 14:43:09 10° NNE 14:49:42 65° WNW 14:56:19 10° SSW
METEOR-M 4.4 14:45:00 10° N 14:50:15 52° W 14:55:33 10° SSW
Meteor 1-4 Rocket 3.4 14:49:22 10° SW 14:52:11 27° W 14:54:58 10° NNW
Cosmos 1484 Rocket 3.7 14:49:28 10° NNE 14:53:05 50° ESE 14:56:42 10° S
Envisat 3.2 14:50:20 10° N 14:55:22 58° W 15:00:29 10° SSW
Cosmos 2333 4.2 14:51:47 10° SSW 14:57:29 84° WNW 15:03:09 10° NNE
Cosmos 923 Rocket 4.0 14:53:54 10° SSW 14:59:11 74° WNW 15:04:26 10° NNE
Cosmos 332 Rocket 4.0 14:55:31 10° NNW 15:00:23 80° ENE 15:05:18 10° SSE
Fregat R/B Cluster 11 3.7 14:57:28 10° SW 15:02:02 89° NW 15:04:51 10° NE
